Regional Weather Roundup
Issued by NWS

Home | Current Version | Previous Version | Graphics & Text | Print | Product List | Glossary On
Versions: 1 2 3 4 5 6 7 8 9 10 11 12 13 14 15 16 17 18 19 20 21 22 23 24 25 26 27 28 29 30 31 32 33 34 35 36 37 38 39 40 41 42 43 44 45 46 47 48 49 50
000
ASUS43 KMPX 050601
RWRMN
WEATHER ROUNDUP FOR MINNESOTA
NATIONAL WEATHER SERVICE TWIN CITIES/CHANHASSEN MN
100 AM CDT THU MAY 05 2016


NOTE: "FAIR" INDICATES FEW OR NO CLOUDS BELOW 12,000 FEET WITH NO
SIGNIFICANT WEATHER AND/OR OBSTRUCTIONS TO VISIBILITY. N/A MEANS
CURRENT SKY AND/OR WEATHER CONDITIONS ARE NOT AVAILABLE.

MNZ060>063-068>070-050700-
   Twin Cities Metro

CITY           SKY/WX    TMP DP  RH WIND       PRES   REMARKS
TWIN CITIES    CLEAR     51  28  41 SE7       30.00R
6HR MIN TEMP:  50; 6HR MAX TEMP:  65;

ST PAUL        CLEAR     46  34  62 E3        30.01R
CRYSTAL        CLEAR     44  29  55 CALM      29.98S
BLAINE         CLEAR     45  36  70 CALM      29.99S
EDEN PRAIRIE   CLEAR     48  33  56 CALM      29.98R
6HR MIN TEMP:  47; 6HR MAX TEMP:  65;

SOUTH ST PAUL  CLEAR     46  32  57 CALM      30.00R
LAKE ELMO      FAIR      41  34  75 CALM      30.01R
$$
MNZ001>005-007-008-013>017-022>024-027-028-050700-
   Northwest Minnesota

CITY           SKY/WX    TMP DP  RH WIND       PRES   REMARKS
BEMIDJI        CLEAR     44  30  57 S3        29.96F
HALLOCK        CLEAR     54  25  32 S10       29.86S
ROSEAU         CLEAR    N/A N/A N/A S9        29.89S
WARROAD        CLEAR     48  34  57 SE9       29.91S
THIEF RVR FALL CLEAR     52  27  37 S8        29.92S
CROOKSTON      CLEAR     55  28  35 S9        29.91S
FOSSTON        CLEAR     50  27  40 SE7       29.94S
DETROIT LAKES  CLEAR     48  41  76 S5        29.96F
MOORHEAD       CLEAR     54  30  40 S8        29.95S
PARK RAPIDS    CLEAR     46  28  49 E5        29.97R
MAHNOMEN       FAIR      45  31  57 S6        29.94F
$$
MNZ006-009>011-018-025>026-050700-
   North Central Minnesota

CITY           SKY/WX    TMP DP  RH WIND       PRES   REMARKS
BAUDETTE       MOCLDY    49  28  44 SE5       29.94S
FLAG ISLAND    PTCLDY    48  37  66 S10       29.90S
INTL FALLS     LGT RAIN  46  33  60 CALM      29.94F
6HR MIN TEMP:  37; 6HR MAX TEMP:  60; 6HR PCP: TRACE;

WASKISH        CLOUDY    46  27  46 SE6       29.95S
BIG FORK       CLOUDY    39  28  65 CALM      29.97F
LONGVILLE      CLEAR     37  32  81 CALM      29.98R
GRAND RAPIDS   CLEAR     37  21  52 S5        29.99S
CRANE LAKE     CLOUDY    32  27  80 CALM      29.99S
ORR            CLOUDY    37  25  60 CALM      29.96S
COOK           PTCLDY    34  27  75 CALM      29.98F
WALKER         FAIR      43  23  44 CALM      29.98R
$$
MNZ012-019>021-037-050700-
   Northeast Minnesota

CITY           SKY/WX    TMP DP  RH WIND       PRES   REMARKS
DULUTH         CLEAR     38  27  64 CALM      30.00R
6HR MIN TEMP:  38; 6HR MAX TEMP:  52;

ELY            CLEAR     34  27  75 CALM      29.99R
HIBBING        CLEAR     29  24  82 CALM      29.99R
EVELETH        CLEAR     32  28  86 CALM      30.01R
DULUTH HARBOR  CLEAR     37  36  93 CALM      30.03R
TWO HARBORS    CLEAR     34  28  80 CALM      29.99S
SILVER BAY     CLOUDY    30  27  86 CALM      29.99S
GRAND MARAIS     N/A     31  28  89 N3        30.03R
G MARAIS ARPRT CLEAR     28  25  86 CALM      30.00S
$$
MNZ029>031-032-039>041-046>048-054>057-064-050700-
   West Central Minnesota

CITY           SKY/WX    TMP DP  RH WIND       PRES   REMARKS
FERGUS FALLS   PTCLDY    50  34  53 S6        29.95F
WHEATON        CLEAR     52  34  50 S7        30.00S
MORRIS         CLEAR     50  34  53 CALM      29.99S
ALEXANDRIA     CLEAR     48  32  53 SE3       30.00S
ELBOW LAKE     FAIR      49  37  63 S7        29.99S
WADENA         CLEAR     45  30  57 CALM      29.97F
GLENWOOD       CLEAR     48  30  49 E3        30.00R
APPLETON       CLEAR     46  36  66 CALM      29.99S
BENSON         CLEAR     45  30  57 CALM      30.00R
ORTONVILLE     CLEAR     50  34  53 W3        29.99F
MADISON        CLEAR     48  32  53 CALM      30.00S
WILLMAR        FAIR      46  32  57 CALM      30.01S
$$
MNZ033>034-036-042>043-049>051-058-059-050700-
   Central Minnesota

CITY           SKY/WX    TMP DP  RH WIND       PRES   REMARKS
ST CLOUD       CLEAR     40  30  67 CALM      29.99R
6HR MIN TEMP:  40; 6HR MAX TEMP:  64;

SAUK CENTRE    FAIR      43  33  67 CALM      29.99S
PAYNESVILLE    CLEAR     40  30  66 CALM      30.00F
AITKIN         CLEAR     39  30  70 CALM      29.97S
PINE RIVER     CLEAR     37  34  87 CALM      30.02R
BRAINERD       CLEAR     42  30  62 CALM      29.99R
STAPLES        CLEAR     39  30  70 CALM      29.98S
LONG PRAIRIE   FAIR      41  34  75 CALM      29.99S
LITTLE FALLS   CLEAR     37  30  75 CALM      30.00R
LITCHFIELD     CLEAR     46  34  61 CALM      30.01S
BUFFALO        CLEAR     43  32  66 CALM      30.00S
MAPLE LAKE     CLEAR     40  36  83 CALM      30.00S
HUTCHINSON     CLEAR     42  32  68 W3        30.01S
$$
MNZ037-044-045-052-053-050700-
   East Central Minnesota

CITY           SKY/WX    TMP DP  RH WIND       PRES   REMARKS
PRINCETON      CLEAR     41  30  65 CALM      29.99R
MORA           CLEAR     36  32  87 CALM      30.02R
CAMBRIDGE      CLEAR     41  28  60 CALM      29.98R
RUSH CITY      CLEAR     38  30  73 CALM      30.00R
MOOSE LAKE     CLEAR     37  28  70 CALM      29.99R
HINCKLEY       CLOUDY    34  30  86 CALM      30.00R
CLOQUET        CLEAR     36  28  75 CALM      30.01R
MCGREGOR       CLEAR     37  30  75 E6        30.00S
$$
MNZ071>073-080-081-089-090-097-098-050700-
   Southwest Minnesota

CITY           SKY/WX    TMP DP  RH WIND       PRES   REMARKS
MONTEVIDEO     CLEAR     48  27  43 CALM      30.02R
GRANITE FALLS  CLEAR     46  31  55 SW3       30.02R
CANBY          CLEAR     49  37  62 SW5       30.02S
MARSHALL       CLEAR     48  32  53 SW3       30.02R
REDWOOD FALLS  CLEAR     53  28  38 CALM      30.00R
OLIVIA         CLEAR     45  28  53 CALM      30.00R
PIPESTONE      CLEAR     52  28  40 CALM      30.02S
WINDOM         CLEAR     45  34  65 CALM      30.02R
WORTHINGTON    CLEAR     47  35  63 W6        30.03R
JACKSON        PTCLDY    50  32  50 CALM      30.02S
TRACY          CLEAR     50  33  51 W5        30.01S
SLAYTON        CLEAR     47  33  58 W5        30.03S
$$
MNZ065>067-074>077-082>085-091>093-050700-
   South Central Minnesota

CITY           SKY/WX    TMP DP  RH WIND       PRES   REMARKS
MANKATO        CLEAR     48  28  46 CALM      29.99S
NEW ULM        CLEAR     46  30  53 NW3       30.00S
ST JAMES       CLEAR     45  30  57 CALM      30.02R
FAIRMONT       CLEAR     48  30  49 CALM      30.00S
GLENCOE        CLEAR     46  36  67 CALM      29.99S
FARIBAULT      CLEAR     39  34  81 CALM      30.00R
OWATONNA       CLEAR     41  30  65 E3        30.00R
WASECA         CLEAR     41  32  70 NE3       30.01R
ALBERT LEA     CLEAR     46  27  46 CALM      30.00R
$$
MNZ078>079-086>088-094>096-050700-
   Southeast Minnesota

CITY           SKY/WX    TMP DP  RH WIND       PRES   REMARKS
ROCHESTER      CLEAR     46  25  43 E7        30.00R
6HR MIN TEMP:  45; 6HR MAX TEMP:  60;

RED WING       CLEAR     43  28  56 E3        29.99S
STANTON        CLEAR     39  31  70 CALM      29.99R
DODGE CENTER   CLEAR     41  21  45 E5        30.00R
WINONA         CLEAR     46  32  57 CALM      30.01R
AUSTIN         CLEAR     43  30  61 NE3       30.00R
PRESTON        CLEAR     45  25  45 CALM      30.00R
$$
ABBREVIATIONS USED IN REMARKS
   TC - TEMPERATURES IN CELSIUS
  WCI - WIND CHILL INDEX
   HX - HEAT INDEX
  VSB - VISIBILITY
$$




USA.gov is the U.S. government's official web portal to all federal, state and local government web resources and services.